Pine Bluff, AR

1:49 PM CST on December 09, 2016 (GMT -0600)
Grider

Weather History for KPBF - January, 2013

Change the Weather History Date:

Thursday, January 10, 2013

  Actual Average Record
Temperature  
Mean Temperature 60 °F 42 °F  
Max Temperature 65 °F 51 °F 80 °F (1949)
Min Temperature 54 °F 33 °F -2 °F (1962)
Degree Days  
Heating Degree Days 5 23  
Month to date heating degree days 222 230  
Since 1 July heating degree days 1286 1383  
Cooling Degree Days 0 0  
Month to date cooling degree days 0 0  
Year to date cooling degree days 0 0  
Growing Degree Days 9 (Base 50)    
Moisture  
Dew Point 57 °F    
Average Humidity 94    
Maximum Humidity 100    
Minimum Humidity 87    
Precipitation  
Precipitation 1.18 in 0.11 in 3.42 in (1974)
Month to date precipitation 2.78 1.16  
Year to date precipitation 2.78 1.16  
Snow  
Snow 0.00 in 0.10 in 1.40 in (1954)
Month to date snowfall 0.0 0.2  
Since 1 July snowfall 2.0 0.4  
Snow Depth 0.00 in    
Sea Level Pressure  
Sea Level Pressure 30.03 in    
Wind  
Wind Speed 11 mph (ESE)    
Max Wind Speed 38 mph    
Max Gust Speed 49 mph    
Visibility 8 miles    
Events Rain    
T = Trace of Precipitation, MM = Missing Value Source: NWS Daily Summary

Daily Weather History Graph

Daily Weather History Graph

Search for Another Location

Airport or City:

Trip Planner

Search our weather history database for the weather conditions in past years. The results will help you decide how hot, cold, wet, or windy it might be!

Date:

Astronomy

Jan. 10, 2013 Rise Set
Actual Time 7:14 AM CST 5:16 PM CST
Civil Twilight 6:46 AM CST 5:44 PM CST
Nautical Twilight 6:15 AM CST 6:15 PM CST
Astronomical Twilight 5:45 AM CST 6:45 PM CST
Moon 5:54 AM CST (1/10) 4:24 PM CST (1/10)
Length of Visible Light 10h 57m
Length of Day
10h 02m
Waning Crescent, 2% of the Moon is Illuminated
Jan 10
Waning Crescent
Jan 11
New
Jan 18
First Quarter
Jan 26
Full
Feb 3
Last Quarter

Hourly Weather History & Observations

Time (CST) Temp. Dew Point Humidity Pressure Visibility Wind Dir Wind Speed Gust Speed Precip Events Conditions
12:53 AM 54.0 °F 54.0 °F 100% 30.19 in 10.0 mi ENE 11.5 mph - 0.07 in   Overcast
1:53 AM 55.0 °F 54.0 °F 96% 30.15 in 10.0 mi ENE 11.5 mph - 0.07 in   Overcast
2:29 AM 55.4 °F 55.4 °F 100% 30.15 in 10.0 mi NNE 10.4 mph - 0.04 in   Overcast
2:46 AM 55.4 °F 55.4 °F 100% 30.14 in 10.0 mi NNE 11.5 mph - 0.06 in   Overcast
2:53 AM 55.9 °F 55.0 °F 97% 30.13 in 10.0 mi NE 8.1 mph - 0.06 in   Overcast
3:53 AM 55.9 °F 55.0 °F 97% 30.12 in 10.0 mi NNE 8.1 mph - 0.07 in   Overcast
4:53 AM 55.9 °F 55.9 °F 100% 30.09 in 10.0 mi NE 9.2 mph - 0.05 in   Overcast
5:00 AM 55.4 °F 55.4 °F 100% 30.08 in 10.0 mi NE 10.4 mph - 0.01 in Rain Light Rain
5:11 AM 55.4 °F 55.4 °F 100% 30.06 in 8.0 mi NE 11.5 mph - 0.02 in Rain Light Rain
5:16 AM 55.4 °F 55.4 °F 100% 30.06 in 8.0 mi NNE 11.5 mph - 0.03 in Rain Light Rain
5:41 AM 55.4 °F 55.4 °F 100% 30.11 in 7.0 mi NW 9.2 mph - 0.05 in Rain Light Rain
5:53 AM 55.0 °F 55.0 °F 100% 30.11 in 5.0 mi NNW 8.1 mph - 0.06 in Rain Light Rain
6:53 AM 55.0 °F 55.0 °F 100% 30.09 in 5.0 mi ENE 6.9 mph - 0.05 in Rain Light Rain
7:00 AM 55.4 °F 55.4 °F 100% 30.09 in 5.0 mi NE 8.1 mph - 0.01 in Rain Light Rain
7:40 AM 55.4 °F 55.4 °F 100% 30.09 in 6.0 mi East 4.6 mph - 0.04 in Rain Light Rain
7:53 AM 57.0 °F 57.0 °F 100% 30.10 in 5.0 mi East 3.5 mph - 0.05 in Rain Light Rain
8:08 AM 55.4 °F 55.4 °F 100% 30.11 in 4.0 mi Calm Calm - 0.02 in Rain Light Rain
8:41 AM 55.4 °F 55.4 °F 100% 30.14 in 3.0 mi Calm Calm - 0.04 in Rain Rain
8:43 AM 55.4 °F 55.4 °F 100% 30.14 in 2.5 mi Calm Calm - N/A Rain Rain
8:53 AM 55.9 °F 55.9 °F 100% 30.13 in 2.5 mi East 3.5 mph - 0.05 in Rain Rain
9:02 AM 57.2 °F 55.4 °F 94% 30.13 in 4.0 mi ESE 8.1 mph - 0.01 in Rain Rain
9:53 AM 60.1 °F 60.1 °F 100% 29.96 in 3.0 mi East 34.5 mph 42.6 mph 0.05 in Rain Heavy Rain
10:53 AM 62.1 °F 60.1 °F 93% 29.99 in 10.0 mi ESE 19.6 mph - 0.05 in   Clear
11:53 AM 63.0 °F 60.1 °F 90% 29.98 in 10.0 mi SE 12.7 mph - 0.04 in   Clear
12:53 PM 64.0 °F 61.0 °F 90% 29.96 in 10.0 mi South 6.9 mph - 0.03 in   Clear
1:53 PM 64.0 °F 60.1 °F 87% 29.93 in 10.0 mi SE 13.8 mph - 0.04 in   Scattered Clouds
2:53 PM 64.0 °F 60.1 °F 87% 29.89 in 10.0 mi SE 11.5 mph - 0.43 in   Clear
3:53 PM 64.9 °F 60.1 °F 84% 29.89 in 10.0 mi South 12.7 mph - N/A   Partly Cloudy
4:09 PM 64.4 °F 60.8 °F 88% 29.89 in 10.0 mi South 12.7 mph - N/A   Mostly Cloudy
4:53 PM 64.0 °F 60.1 °F 87% 29.88 in 10.0 mi South 11.5 mph - N/A   Overcast
5:20 PM 62.6 °F 60.8 °F 94% 29.90 in 4.0 mi SSW 12.7 mph - 0.00 in Rain Light Rain
5:31 PM 62.6 °F 60.8 °F 94% 29.90 in 4.0 mi SSW 11.5 mph - 0.01 in Rain Light Rain
5:41 PM 62.6 °F 60.8 °F 94% 29.90 in 4.0 mi South 12.7 mph - 0.01 in Rain Light Rain
5:53 PM 62.1 °F 61.0 °F 96% 29.91 in 4.0 mi South 11.5 mph - 0.02 in Rain Light Rain
6:12 PM 62.6 °F 60.8 °F 94% 29.92 in 10.0 mi South 11.5 mph - 0.00 in   Overcast
6:53 PM 62.1 °F 61.0 °F 96% 29.94 in 10.0 mi South 9.2 mph - 0.00 in   Overcast
7:53 PM 62.1 °F 59.0 °F 90% 29.94 in 10.0 mi SW 9.2 mph - N/A   Mostly Cloudy
8:53 PM 60.1 °F 57.9 °F 93% 29.96 in 10.0 mi SSW 9.2 mph - N/A   Scattered Clouds
9:53 PM 59.0 °F 57.2 °F 94% 29.95 in 10.0 mi SSW 10.4 mph - N/A   Clear
10:53 PM 57.9 °F 55.9 °F 93% 29.96 in 10.0 mi SW 10.4 mph - N/A   Clear